Total_Precipitation_Accumulation
0.58 0.53 0.65 0.77 0.71 0.75 1.01 1.05 0.96 0.61 0.53 0.61 0.60 0.59 0.56 0.53 0.51 0.54 0.66 0.70 0.70 0.74 0.78 0.84 0.94 1.01 1.00 1.06 1.14 1.28 1.48 1.61 1.66 1.68 1.81 1.94 1.98 2.01 1.98 2.09 2.16 2.11 2.13 2.16
0.58 0.39 0.47 0.59 0.50 0.53 0.58 0.58 0.63 0.52 0.58 0.60 0.58 0.52 0.52 0.53 0.53 0.56 0.66 0.71 0.73 0.75 0.80 0.85 0.91 0.98 0.97 0.98 1.08 1.20 1.37 1.47 1.54 1.67 1.78 1.96 2.04 2.12 2.12 2.13 2.20 2.20 2.15 2.16
0.94 0.48 0.73 0.89 0.61 0.54 0.55 0.55 0.57 0.65 0.67 0.60 0.57 0.56 0.56 0.55 0.56 0.58 0.59 0.63 0.68 0.77 0.82 0.84 0.87 0.90 0.95 0.95 0.97 1.07 1.23 1.34 1.43 1.59 1.68 1.78 1.86 1.91 1.97 1.94 1.94 2.02 2.06 1.98
1.35 0.99 1.37 0.80 0.49 0.46 0.49 0.55 0.57 0.60 0.61 0.61 0.65 0.65 0.59 0.58 0.60 0.60 0.58 0.58 0.60 0.71 0.78 0.76 0.79 0.86 0.89 0.89 0.91 1.00 1.12 1.22 1.27 1.42 1.57 1.61 1.67 1.71 1.75 1.70 1.74 1.87 1.88 1.75
1.76 1.31 0.80 0.44 0.38 0.51 0.60 0.68 0.60 0.56 0.55 0.54 0.56 0.59 0.62 0.60 0.58 0.61 0.59 0.57 0.60 0.67 0.72 0.72 0.77 0.83 0.83 0.84 0.84 0.92 1.02 1.09 1.11 1.20 1.41 1.45 1.52 1.60 1.60 1.63 1.64 1.66 1.66 1.59
1.89 1.46 0.79 0.45 0.30 0.36 0.54 0.79 0.56 0.50 0.54 0.56 0.57 0.77 0.75 0.67 0.64 0.63 0.58 0.57 0.62 0.66 0.65 0.67 0.74 0.75 0.75 0.76 0.79 0.87 0.93 1.01 1.03 1.06 1.20 1.25 1.30 1.39 1.42 1.45 1.53 1.57 1.57 1.52
1.55 1.25 0.60 0.38 0.30 0.34 0.81 0.96 0.53 0.51 0.57 0.61 0.71 0.83 0.76 0.70 0.68 0.65 0.64 0.63 0.62 0.64 0.66 0.69 0.74 0.75 0.76 0.75 0.77 0.81 0.84 0.89 0.94 1.01 1.09 1.13 1.17 1.22 1.30 1.37 1.43 1.48 1.51 1.47
1.16 1.31 0.73 0.37 0.39 0.67 0.84 0.53 0.47 0.49 0.53 0.58 0.58 0.56 0.58 0.62 0.63 0.61 0.63 0.64 0.63 0.65 0.70 0.71 0.72 0.71 0.70 0.76 0.75 0.77 0.82 0.89 0.93 0.97 1.01 1.04 1.09 1.16 1.18 1.29 1.43 1.44 1.41 1.42
0.87 0.81 0.59 0.47 0.56 0.60 0.50 0.45 0.41 0.45 0.48 0.52 0.54 0.54 0.57 0.59 0.59 0.60 0.61 0.61 0.62 0.66 0.71 0.70 0.71 0.69 0.69 0.73 0.74 0.76 0.80 0.86 0.93 0.99 1.00 1.05 1.09 1.16 1.22 1.32 1.45 1.45 1.38 1.35
0.59 0.48 0.41 0.41 0.42 0.42 0.41 0.43 0.41 0.43 0.48 0.49 0.54 0.54 0.57 0.57 0.58 0.59 0.58 0.57 0.57 0.61 0.67 0.69 0.71 0.71 0.71 0.73 0.75 0.78 0.81 0.82 0.87 0.98 1.05 1.06 1.10 1.16 1.19 1.26 1.42 1.49 1.45 1.40
0.52 0.38 0.33 0.32 0.32 0.37 0.40 0.38 0.37 0.39 0.42 0.45 0.47 0.49 0.52 0.56 0.57 0.59 0.59 0.57 0.56 0.59 0.66 0.71 0.71 0.72 0.74 0.78 0.82 0.84 0.81 0.81 0.84 0.94 1.02 1.05 1.10 1.15 1.21 1.21 1.43 1.63 1.53 1.52
0.52 0.37 0.40 0.35 0.30 0.31 0.36 0.36 0.35 0.37 0.39 0.39 0.40 0.46 0.47 0.51 0.53 0.55 0.57 0.58 0.57 0.58 0.64 0.69 0.72 0.74 0.79 0.86 0.89 0.89 0.88 0.87 0.88 0.95 0.98 1.01 1.06 1.14 1.24 1.26 1.34 1.35 1.40 1.50
0.40 0.33 0.34 0.31 0.26 0.25 0.30 0.32 0.32 0.34 0.38 0.41 0.39 0.41 0.47 0.50 0.51 0.52 0.53 0.55 0.60 0.62 0.64 0.67 0.69 0.72 0.80 0.89 0.92 0.91 0.94 0.95 0.97 0.98 0.98 1.01 0.99 1.04 1.16 1.19 1.21 1.23 1.26 1.33
0.29 0.28 0.29 0.23 0.23 0.22 0.25 0.28 0.27 0.28 0.31 0.36 0.41 0.41 0.45 0.48 0.47 0.48 0.51 0.53 0.54 0.58 0.61 0.62 0.64 0.70 0.78 0.90 0.96 0.97 0.97 1.03 1.06 1.03 1.01 1.02 1.00 0.98 1.04 1.16 1.27 1.31 1.33 1.37
0.24 0.25 0.26 0.22 0.19 0.19 0.20 0.23 0.25 0.27 0.28 0.32 0.36 0.41 0.45 0.48 0.48 0.48 0.49 0.49 0.48 0.51 0.56 0.58 0.61 0.69 0.76 0.86 0.95 1.01 1.06 1.07 1.09 1.09 1.06 1.04 1.03 1.04 1.05 1.09 1.19 1.31 1.40 1.49
0.27 0.23 0.21 0.20 0.19 0.19 0.21 0.24 0.28 0.30 0.31 0.34 0.35 0.39 0.46 0.50 0.50 0.48 0.48 0.49 0.51 0.52 0.55 0.59 0.62 0.70 0.78 0.87 0.96 1.05 1.15 1.23 1.22 1.17 1.15 1.11 1.09 1.11 1.13 1.16 1.19 1.25 1.35 1.45
0.34 0.29 0.25 0.24 0.22 0.22 0.24 0.29 0.33 0.34 0.34 0.36 0.38 0.40 0.43 0.46 0.47 0.47 0.47 0.49 0.52 0.55 0.56 0.60 0.68 0.72 0.78 0.87 0.98 1.10 1.19 1.23 1.26 1.22 1.19 1.18 1.20 1.21 1.22 1.25 1.28 1.26 1.28 1.38
0.33 0.33 0.32 0.32 0.31 0.28 0.26 0.27 0.30 0.32 0.35 0.39 0.39 0.40 0.42 0.47 0.52 0.53 0.52 0.51 0.49 0.48 0.52 0.59 0.70 0.75 0.78 0.87 1.00 1.09 1.17 1.19 1.16 1.17 1.21 1.25 1.30 1.29 1.30 1.30 1.27 1.29 1.31 1.36
0.26 0.27 0.26 0.26 0.27 0.29 0.29 0.29 0.30 0.31 0.33 0.36 0.38 0.40 0.44 0.50 0.55 0.59 0.56 0.53 0.51 0.53 0.59 0.64 0.74 0.74 0.80 0.93 1.05 1.10 1.16 1.18 1.17 1.17 1.21 1.30 1.30 1.23 1.26 1.27 1.30 1.31 1.30 1.32
0.24 0.25 0.25 0.25 0.25 0.28 0.30 0.30 0.30 0.29 0.31 0.35 0.37 0.38 0.40 0.47 0.54 0.58 0.56 0.55 0.60 0.67 0.68 0.73 0.71 0.71 0.81 0.96 1.11 1.12 1.14 1.15 1.17 1.20 1.23 1.24 1.24 1.25 1.24 1.24 1.31 1.37 1.35 1.32
0.25 0.26 0.26 0.27 0.27 0.26 0.28 0.30 0.31 0.32 0.34 0.37 0.42 0.45 0.48 0.51 0.55 0.58 0.58 0.58 0.60 0.64 0.68 0.70 0.72 0.80 0.92 1.08 1.12 1.08 1.10 1.13 1.17 1.24 1.28 1.28 1.28 1.26 1.25 1.26 1.30 1.35 1.35 1.33
0.29 0.31 0.31 0.31 0.31 0.30 0.30 0.32 0.34 0.35 0.36 0.39 0.43 0.47 0.50 0.53 0.56 0.56 0.58 0.66 0.70 0.75 0.70 0.66 0.75 0.94 1.10 1.11 1.03 1.03 1.05 1.10 1.17 1.25 1.31 1.31 1.31 1.30 1.26 1.26 1.32 1.32 1.31 1.30
0.34 0.36 0.37 0.39 0.41 0.41 0.38 0.38 0.41 0.42 0.44 0.47 0.50 0.53 0.56 0.59 0.61 0.64 0.66 0.66 0.70 0.74 0.71 0.73 0.83 0.99 1.06 0.99 0.95 0.97 1.00 1.06 1.14 1.25 1.32 1.35 1.36 1.35 1.33 1.31 1.34 1.36 1.35 1.32
0.36 0.39 0.42 0.44 0.44 0.42 0.42 0.43 0.44 0.48 0.51 0.53 0.57 0.60 0.61 0.60 0.59 0.61 0.67 0.69 0.71 0.73 0.72 0.77 0.85 0.94 0.96 0.90 0.88 0.92 0.99 1.06 1.16 1.27 1.32 1.35 1.37 1.35 1.36 1.40 1.44 1.40 1.35 1.30
0.40 0.42 0.42 0.44 0.46 0.47 0.48 0.45 0.42 0.44 0.46 0.49 0.52 0.55 0.57 0.63 0.71 0.70 0.66 0.66 0.69 0.71 0.70 0.75 0.81 0.87 0.86 0.84 0.86 0.94 1.02 1.14 1.30 1.43 1.45 1.42 1.37 1.36 1.36 1.41 1.47 1.44 1.37 1.32
0.47 0.49 0.50 0.52 0.55 0.55 0.54 0.51 0.50 0.50 0.51 0.51 0.50 0.51 0.55 0.61 0.68 0.71 0.69 0.66 0.68 0.72 0.73 0.77 0.80 0.83 0.83 0.85 0.90 0.96 1.04 1.13 1.27 1.37 1.35 1.34 1.33 1.35 1.36 1.39 1.39 1.39 1.36 1.33
0.52 0.51 0.51 0.52 0.53 0.55 0.60 0.62 0.63 0.63 0.65 0.65 0.62 0.58 0.60 0.64 0.67 0.68 0.66 0.65 0.67 0.69 0.74 0.79 0.82 0.83 0.84 0.88 0.95 1.00 1.03 1.09 1.23 1.36 1.36 1.34 1.35 1.37 1.35 1.35 1.36 1.37 1.36 1.34